DELTA 2 R/B, 25876

Orbit data source: Space-Track

DELTA 2 R/B, 25876 is space debris in LEO originally from a launch on Sun, 25 Jul 1999 UTC launched from the Air Force Eastern Test Range (AFETR). Debris objects in space refer to the collection of defunct objects orbiting the Earth. Examples of debris include non-operational satellites, rocket bodies, and fragments generated from explosions, collisions, or faulty payload assembly.

Loading next visibility...
Identifier
25876, 1999-041E
Orbit
LEO
Country
Flag of USUS
Related business
Manufacturer
Boeing/HB
Mission
Spacecraft
Bus & Motor
DELTA/0020, Unknown motor
Mass
1,188 kg wet, 919 kg dry
Launch date (UTC)
1999-07-25 (26 years ago)
Launch vehicle
Unknown
Launch site
Air Force Eastern Test Range (AFETR)
Object type
Payload
Rocket body
Debris
Shape & HBR
Cyl + Cone, 3.0 m
Radar Cross Section
13.645 m², Large (>1 m²)

Expand to show TLE details & history
Last TLE update: 7 hours ago

TLE from 7 hours ago
0 DELTA 2 R/B
1 25876U 99041E   25354.92751095  .00000599  00000-0  13663-3 0  9993
2 25876  51.7610 255.7609 0504530 115.8973 249.4857 14.11420933351900
Epoch: 2025-12-20T22:15Z
TLE epoch observation values (Epoch: 2025-12-20T22:15:36.946Z)
Latitude
-0.00001°
Longitude
-167.89034°
Altitude
998.816 km
Speed
7.28 km/s
True Right ascension
17h 03m 02s
True Declination
0° 00' 00"
Sunlit
Object was in daylight at epoch
Visualization orbit readout
Latitude
Unknown
Longitude
Unknown
Altitude
Unknown
Speed
Unknown
Apparent Right ascension
Unknown
Apparent Declination
Unknown
Sunlit
N/A
Visualization observer readout
Local Sidereal Time
03:55:59
Azimuth
Unknown
Elevation
Unknown
Doppler factor
Unknown
Orbital elements
Apogee altitude
1,219.906 km
Perigee altitude
490.042 km
Semi-major axis
7,233.111 km
Eccentricity
0.05045
Inclination
51.761°
RAAN
255.7609°
Arg. of periapsis
115.8973°
True anomaly
244.19554°
Mean anomaly
249.4857°
Eccentric anomaly
246.82816°
Mean motion
3.52822 °/min
Orbital period
102.03 mins
BSTAR
0.00013663
Loading maneuver chart data...
Computing Atmospheric mass density...
Loading historical data...
Loading historical data...
Loading historical data...
Loading historical data...
Loading historical data...
Loading historical data...
Loading historical data...
Other satellites on launch #41 in the year 1999 (1999-07-25 UTC)

Documentation

Showing up to 5 results
|